PBD9819 UWSG-UWKD

Flight info

Callsign PBD9819
Flight time 0h 51m
Altitude 33000
Route DCT OGRER T789 SONUM DCT
Aircraft B738/M-SDE2E3FGHIRWXY/LB1

Departure

Time 2026-05-07 19:45
Airport Gagarin International Airport (UWSG)

Arrival

Time 2026-05-07 20:36
Airport Kazan International Airport (UWKD)
Time Latitude Longitude Altitude Speed Heading
2026-05-07 19:21 51.71601 46.16869 8 ft 0 kts 49°
2026-05-07 19:35 51.71623 46.16908 8 ft 8 kts 46°
2026-05-07 19:35 51.71665 46.16894 8 ft 7 kts 297°
2026-05-07 19:35 51.71672 46.16815 8 ft 6 kts 271°
2026-05-07 19:35 51.71673 46.16732 8 ft 7 kts 271°
2026-05-07 19:36 51.71675 46.16647 8 ft 7 kts 271°
2026-05-07 19:36 51.71656 46.16582 8 ft 6 kts 215°
2026-05-07 19:36 51.71619 46.16558 8 ft 5 kts 187°
2026-05-07 19:36 51.71578 46.16555 8 ft 5 kts 180°
2026-05-07 19:37 51.71537 46.16554 8 ft 5 kts 181°
2026-05-07 19:37 51.71498 46.16552 8 ft 5 kts 182°
2026-05-07 19:37 51.71458 46.16548 8 ft 5 kts 182°
2026-05-07 19:37 51.71420 46.16546 8 ft 5 kts 182°
2026-05-07 19:38 51.71411 46.16545 8 ft 0 kts 182°
2026-05-07 19:38 51.71405 46.16544 8 ft 4 kts 182°
2026-05-07 19:39 51.71361 46.16541 8 ft 6 kts 182°
2026-05-07 19:39 51.71314 46.16545 8 ft 8 kts 162°
2026-05-07 19:39 51.71281 46.16637 8 ft 10 kts 99°
2026-05-07 19:39 51.71274 46.16791 8 ft 16 kts 90°
2026-05-07 19:40 51.71269 46.16973 8 ft 16 kts 93°
2026-05-07 19:40 51.71263 46.17151 8 ft 15 kts 92°
2026-05-07 19:40 51.71263 46.17322 8 ft 15 kts 90°
2026-05-07 19:40 51.71261 46.17491 8 ft 15 kts 91°
2026-05-07 19:41 51.71254 46.17670 8 ft 17 kts 94°
2026-05-07 19:41 51.71246 46.17899 8 ft 21 kts 92°
2026-05-07 19:41 51.71241 46.18138 8 ft 22 kts 91°
2026-05-07 19:41 51.71235 46.18402 8 ft 23 kts 91°
2026-05-07 19:42 51.71232 46.18662 8 ft 22 kts 91°
2026-05-07 19:42 51.71223 46.18913 8 ft 22 kts 94°
2026-05-07 19:42 51.71237 46.19100 8 ft 14 kts 49°
2026-05-07 19:42 51.71272 46.19234 8 ft 12 kts 93°
2026-05-07 19:43 51.71220 46.19286 8 ft 6 kts 236°
2026-05-07 19:43 51.71215 46.19199 8 ft 7 kts 272°
2026-05-07 19:43 51.71217 46.19116 8 ft 7 kts 272°
2026-05-07 19:43 51.71220 46.19011 8 ft 17 kts 272°
2026-05-07 19:44 51.71234 46.18445 8 ft 85 kts 272°
2026-05-07 19:44 51.71264 46.17172 8 ft 142 kts 272°
2026-05-07 19:44 51.71316 46.15330 109 ft 178 kts 272°
2026-05-07 19:44 51.71345 46.13341 611 ft 181 kts 273°
2026-05-07 19:45 51.71381 46.11237 1016 ft 192 kts 275°
2026-05-07 19:45 51.71424 46.09064 1542 ft 205 kts 276°
2026-05-07 19:45 51.71478 46.06729 2078 ft 216 kts 277°
2026-05-07 19:45 51.71730 46.04316 2594 ft 223 kts 296°
2026-05-07 19:46 51.72623 46.02299 3125 ft 226 kts 324°
2026-05-07 19:46 51.73993 46.01017 3657 ft 232 kts 342°
2026-05-07 19:46 51.75567 46.00421 4170 ft 240 kts 359°
2026-05-07 19:46 51.77232 46.00825 4693 ft 247 kts 22°
2026-05-07 19:47 51.78754 46.02082 5286 ft 252 kts 30°
2026-05-07 19:47 51.80268 46.03524 5875 ft 256 kts 30°
2026-05-07 19:47 51.81810 46.04919 6462 ft 257 kts 28°
2026-05-07 19:47 51.83399 46.06285 7060 ft 261 kts 28°
2026-05-07 19:48 51.84996 46.07627 7648 ft 261 kts 27°
2026-05-07 19:48 51.86620 46.08983 8246 ft 264 kts 27°
2026-05-07 19:48 51.88257 46.10350 8840 ft 266 kts 27°
2026-05-07 19:48 51.89899 46.11724 9455 ft 269 kts 27°
2026-05-07 19:49 51.91528 46.13096 10039 ft 272 kts 27°
2026-05-07 19:49 51.93228 46.14530 10632 ft 281 kts 27°
2026-05-07 19:49 51.94991 46.16012 11213 ft 291 kts 27°
2026-05-07 19:49 51.96822 46.17547 11639 ft 306 kts 27°
2026-05-07 19:50 51.98749 46.19167 12057 ft 321 kts 27°
2026-05-07 19:50 52.00782 46.20879 12463 ft 336 kts 27°
2026-05-07 19:50 52.02905 46.22669 12897 ft 350 kts 27°
2026-05-07 19:50 52.05062 46.24491 13306 ft 354 kts 27°
2026-05-07 19:51 52.07236 46.26331 13845 ft 356 kts 27°
2026-05-07 19:51 52.09454 46.28210 14471 ft 362 kts 27°
2026-05-07 19:51 52.11704 46.30121 15099 ft 366 kts 27°
2026-05-07 19:51 52.13936 46.32020 15719 ft 369 kts 27°
2026-05-07 19:52 52.16230 46.33973 16353 ft 371 kts 27°
2026-05-07 19:52 52.18510 46.35912 16977 ft 375 kts 27°
2026-05-07 19:52 52.20795 46.37857 17599 ft 377 kts 27°
2026-05-07 19:52 52.23146 46.39861 18232 ft 383 kts 27°
2026-05-07 19:53 52.25501 46.41869 18866 ft 385 kts 27°
2026-05-07 19:53 52.27844 46.43870 19485 ft 388 kts 27°
2026-05-07 19:53 52.30239 46.45920 20115 ft 393 kts 27°
2026-05-07 19:53 52.32677 46.48010 20760 ft 397 kts 27°
2026-05-07 19:54 52.35110 46.50100 21396 ft 401 kts 27°
2026-05-07 19:54 52.37597 46.52238 22041 ft 404 kts 27°
2026-05-07 19:54 52.40080 46.54374 22697 ft 409 kts 27°
2026-05-07 19:54 52.42612 46.56553 23326 ft 412 kts 27°
2026-05-07 19:55 52.45131 46.58724 23728 ft 418 kts 27°
2026-05-07 19:55 52.47738 46.60972 24133 ft 421 kts 27°
2026-05-07 19:55 52.50311 46.63193 24531 ft 423 kts 27°
2026-05-07 19:55 52.52920 46.65451 24940 ft 427 kts 27°
2026-05-07 19:56 52.55532 46.67718 25336 ft 431 kts 27°
2026-05-07 19:56 52.58192 46.70029 25726 ft 435 kts 27°
2026-05-07 19:56 52.60846 46.72339 26118 ft 435 kts 27°
2026-05-07 19:56 52.63524 46.74672 26516 ft 435 kts 27°
2026-05-07 19:57 52.66189 46.76996 26907 ft 435 kts 27°
2026-05-07 19:57 52.68834 46.79306 27303 ft 433 kts 27°
2026-05-07 19:57 52.71490 46.81627 27698 ft 434 kts 27°
2026-05-07 19:57 52.74164 46.83967 28099 ft 433 kts 27°
2026-05-07 19:58 52.76807 46.86284 28494 ft 432 kts 27°
2026-05-07 19:58 52.79428 46.88585 28889 ft 431 kts 27°
2026-05-07 19:58 52.82077 46.90914 29286 ft 432 kts 27°
2026-05-07 19:58 52.84735 46.93253 29687 ft 431 kts 26°
2026-05-07 19:59 52.87374 46.95580 30087 ft 432 kts 26°
2026-05-07 19:59 52.90026 46.97919 30415 ft 435 kts 26°
2026-05-07 19:59 52.92672 47.00258 30677 ft 433 kts 26°
2026-05-07 19:59 52.95322 47.02605 30943 ft 430 kts 26°
2026-05-07 20:00 52.97927 47.04913 31207 ft 431 kts 26°
2026-05-07 20:00 53.00590 47.07275 31477 ft 432 kts 27°
2026-05-07 20:00 53.03208 47.09600 31740 ft 429 kts 27°
2026-05-07 20:00 53.05830 47.11933 32002 ft 428 kts 26°
2026-05-07 20:01 53.08434 47.14254 32273 ft 428 kts 27°
2026-05-07 20:01 53.11042 47.16582 32529 ft 427 kts 26°
2026-05-07 20:01 53.13646 47.18908 32796 ft 428 kts 26°
2026-05-07 20:01 53.16259 47.21247 32945 ft 429 kts 26°
2026-05-07 20:02 53.21584 47.26017 32948 ft 441 kts 26°
2026-05-07 20:02 53.26995 47.30880 32943 ft 443 kts 27°
2026-05-07 20:03 53.32399 47.35756 32944 ft 445 kts 26°
2026-05-07 20:03 53.37848 47.40685 32949 ft 444 kts 27°
2026-05-07 20:04 53.43226 47.45565 32947 ft 443 kts 27°
2026-05-07 20:04 53.48646 47.50495 32953 ft 443 kts 27°
2026-05-07 20:05 53.54033 47.55411 32949 ft 443 kts 27°
2026-05-07 20:05 53.59428 47.60348 32953 ft 443 kts 27°
2026-05-07 20:06 53.64819 47.65295 32950 ft 442 kts 28°
2026-05-07 20:06 53.70239 47.70286 32949 ft 442 kts 28°
2026-05-07 20:07 53.75593 47.75227 32956 ft 443 kts 28°
2026-05-07 20:07 53.80993 47.80226 32946 ft 441 kts 28°
2026-05-07 20:08 53.86342 47.85192 32947 ft 442 kts 28°
2026-05-07 20:08 53.91729 47.90209 32951 ft 441 kts 28°
2026-05-07 20:09 53.97081 47.95207 32946 ft 442 kts 28°
2026-05-07 20:10 54.05056 48.02686 32898 ft 423 kts 28°
2026-05-07 20:10 54.07604 48.05083 32509 ft 416 kts 28°
2026-05-07 20:10 54.10110 48.07445 32030 ft 412 kts 28°
2026-05-07 20:10 54.12573 48.09767 31607 ft 406 kts 28°
2026-05-07 20:11 54.15013 48.12071 31113 ft 403 kts 28°
2026-05-07 20:11 54.17484 48.14406 30600 ft 400 kts 28°
2026-05-07 20:11 54.19865 48.16660 30091 ft 397 kts 28°
2026-05-07 20:11 54.22267 48.18936 29578 ft 394 kts 28°
2026-05-07 20:12 54.24641 48.21189 29052 ft 391 kts 28°
2026-05-07 20:12 54.27006 48.23436 28545 ft 388 kts 28°
2026-05-07 20:12 54.29346 48.25663 28045 ft 385 kts 28°
2026-05-07 20:12 54.31652 48.27861 27546 ft 382 kts 28°
2026-05-07 20:13 54.33971 48.30073 27043 ft 379 kts 28°
2026-05-07 20:13 54.36251 48.32252 26542 ft 376 kts 28°
2026-05-07 20:13 54.38520 48.34424 26047 ft 373 kts 28°
2026-05-07 20:13 54.40773 48.36582 25551 ft 370 kts 28°
2026-05-07 20:14 54.42995 48.38713 25065 ft 367 kts 28°
2026-05-07 20:14 54.45194 48.40825 24583 ft 364 kts 28°
2026-05-07 20:14 54.47367 48.42914 24105 ft 361 kts 28°
2026-05-07 20:14 54.49565 48.45030 23625 ft 358 kts 28°
2026-05-07 20:15 54.51698 48.47086 23149 ft 356 kts 28°
2026-05-07 20:15 54.53852 48.49166 22673 ft 353 kts 27°
2026-05-07 20:15 54.55977 48.51221 22195 ft 351 kts 27°
2026-05-07 20:15 54.58098 48.53273 21715 ft 348 kts 28°
2026-05-07 20:16 54.60193 48.55301 21264 ft 345 kts 27°
2026-05-07 20:16 54.62275 48.57319 20797 ft 343 kts 27°
2026-05-07 20:16 54.64333 48.59316 20331 ft 341 kts 27°
2026-05-07 20:16 54.66382 48.61308 19872 ft 339 kts 27°
2026-05-07 20:17 54.68421 48.63290 19398 ft 337 kts 28°
2026-05-07 20:17 54.70443 48.65260 18946 ft 334 kts 28°
2026-05-07 20:17 54.72443 48.67212 18506 ft 331 kts 28°
2026-05-07 20:17 54.74443 48.69166 18057 ft 329 kts 28°
2026-05-07 20:18 54.76415 48.71093 17596 ft 327 kts 28°
2026-05-07 20:18 54.78389 48.73025 17145 ft 325 kts 28°
2026-05-07 20:18 54.80345 48.74942 16739 ft 324 kts 28°
2026-05-07 20:18 54.82296 48.76854 16494 ft 330 kts 28°
2026-05-07 20:19 54.84318 48.78841 16262 ft 333 kts 28°
2026-05-07 20:19 54.86312 48.80810 16012 ft 333 kts 28°
2026-05-07 20:19 54.88295 48.82777 15776 ft 330 kts 28°
2026-05-07 20:19 54.90300 48.84768 15535 ft 332 kts 28°
2026-05-07 20:20 54.92288 48.86743 15288 ft 331 kts 28°
2026-05-07 20:20 54.94278 48.88723 15034 ft 329 kts 28°
2026-05-07 20:20 54.96264 48.90699 14804 ft 328 kts 28°
2026-05-07 20:20 54.98230 48.92657 14528 ft 324 kts 28°
2026-05-07 20:21 55.00173 48.94595 14067 ft 322 kts 28°
2026-05-07 20:21 55.02103 48.96521 13312 ft 322 kts 28°
2026-05-07 20:21 55.04013 48.98428 12652 ft 316 kts 28°
2026-05-07 20:21 55.05894 49.00309 11990 ft 311 kts 29°
2026-05-07 20:22 55.07759 49.02178 11344 ft 308 kts 29°
2026-05-07 20:22 55.09581 49.04006 10994 ft 302 kts 29°
2026-05-07 20:22 55.11355 49.05788 10825 ft 291 kts 29°
2026-05-07 20:22 55.13077 49.07520 10701 ft 280 kts 29°
2026-05-07 20:23 55.14749 49.09199 10428 ft 275 kts 28°
2026-05-07 20:23 55.16472 49.10565 10055 ft 273 kts 15°
2026-05-07 20:23 55.18350 49.10802 9645 ft 272 kts 351°
2026-05-07 20:23 55.20152 49.10043 9288 ft 270 kts 345°
2026-05-07 20:24 55.21942 49.09119 8952 ft 268 kts 344°
2026-05-07 20:24 55.23738 49.08228 8944 ft 267 kts 345°
2026-05-07 20:24 55.25528 49.07393 8943 ft 270 kts 345°
2026-05-07 20:24 55.27343 49.06575 8942 ft 269 kts 346°
2026-05-07 20:25 55.29169 49.05762 8944 ft 269 kts 346°
2026-05-07 20:25 55.30957 49.04965 8906 ft 266 kts 346°
2026-05-07 20:25 55.32715 49.04180 8704 ft 259 kts 346°
2026-05-07 20:25 55.34459 49.03400 8406 ft 256 kts 346°
2026-05-07 20:26 55.36169 49.02634 8102 ft 254 kts 346°
2026-05-07 20:26 55.37869 49.01870 7797 ft 252 kts 345°
2026-05-07 20:26 55.39555 49.01112 7468 ft 251 kts 345°
2026-05-07 20:26 55.41240 49.00353 7158 ft 249 kts 345°
2026-05-07 20:27 55.42902 48.99604 6871 ft 247 kts 346°
2026-05-07 20:27 55.44558 48.98857 6536 ft 246 kts 346°
2026-05-07 20:27 55.46207 48.98114 6251 ft 245 kts 346°
2026-05-07 20:27 55.47865 48.97366 5918 ft 244 kts 346°
2026-05-07 20:28 55.49483 48.96635 5608 ft 243 kts 346°
2026-05-07 20:28 55.51123 48.95894 5297 ft 241 kts 346°
2026-05-07 20:28 55.52720 48.95171 5025 ft 240 kts 346°
2026-05-07 20:28 55.54379 48.94420 4721 ft 255 kts 346°
2026-05-07 20:29 55.56118 48.93631 4384 ft 257 kts 346°
2026-05-07 20:29 55.57818 48.92858 4067 ft 254 kts 346°
2026-05-07 20:29 55.59501 48.92094 3975 ft 242 kts 346°
2026-05-07 20:29 55.61098 48.91370 3877 ft 233 kts 347°
2026-05-07 20:30 55.62687 48.90934 3654 ft 230 kts
2026-05-07 20:30 55.64175 48.91636 3419 ft 224 kts 32°
2026-05-07 20:30 55.65430 48.93222 3175 ft 221 kts 40°
2026-05-07 20:30 55.66640 48.94863 2985 ft 216 kts 38°
2026-05-07 20:31 55.67840 48.96384 2786 ft 210 kts 37°
2026-05-07 20:31 55.69009 48.97876 2528 ft 205 kts 41°
2026-05-07 20:31 55.69876 48.99765 2276 ft 195 kts 69°
2026-05-07 20:31 55.70050 49.02043 2031 ft 187 kts 97°
2026-05-07 20:32 55.69660 49.04182 1825 ft 180 kts 116°
2026-05-07 20:32 55.69034 49.06068 1715 ft 176 kts 121°
2026-05-07 20:32 55.68370 49.07848 1728 ft 169 kts 123°
2026-05-07 20:32 55.67712 49.09565 1719 ft 168 kts 123°
2026-05-07 20:33 55.67061 49.11259 1721 ft 168 kts 123°
2026-05-07 20:33 55.66396 49.12984 1722 ft 168 kts 123°
2026-05-07 20:33 55.65764 49.14617 1738 ft 152 kts 123°
2026-05-07 20:33 55.65170 49.16156 1648 ft 151 kts 123°
2026-05-07 20:34 55.64599 49.17632 1417 ft 141 kts 123°
2026-05-07 20:34 55.64045 49.19067 1250 ft 142 kts 123°
2026-05-07 20:34 55.63493 49.20491 1015 ft 137 kts 122°
2026-05-07 20:34 55.62967 49.21873 805 ft 136 kts 124°
2026-05-07 20:35 55.62413 49.23220 677 ft 134 kts 123°
2026-05-07 20:35 55.61898 49.24632 550 ft 139 kts 123°
2026-05-07 20:35 55.61329 49.26050 442 ft 138 kts 124°
2026-05-07 20:35 55.60839 49.27396 419 ft 104 kts 125°
2026-05-07 20:36 55.60582 49.28017 419 ft 56 kts 124°
2026-05-07 20:36 55.60433 49.28426 419 ft 25 kts 128°
2026-05-07 20:36 55.60438 49.28640 419 ft 25 kts 40°
2026-05-07 20:36 55.60551 49.28722 419 ft 15 kts 352°
2026-05-07 20:37 55.60583 49.28897 419 ft 22 kts 90°
2026-05-07 20:37 55.60576 49.29181 419 ft 16 kts 76°
2026-05-07 20:37 55.60648 49.29335 419 ft 15 kts 37°
2026-05-07 20:37 55.60641 49.29416 419 ft 5 kts 110°
2026-05-07 20:38 55.60595 49.29562 419 ft 15 kts 115°
2026-05-07 20:38 55.60613 49.29686 419 ft 9 kts 35°
2026-05-07 20:38 55.60650 49.29732 419 ft 0 kts 33°